sat.trackr.live / text

‹ back to catalog

STARLINK-35318

NORAD 66146 · 2025-240A

PAYLOAD ACTIVE UNKNOWN

§ Identity

Operator
Country
US
Launch date
2025-10-25
Launch site
AFETR
Launch vehicle
Mass (kg)
RCS (m²)

Purposes: comms

External: N2YO · Heavens-Above · Gunter

§ Orbital elements

Epoch: 2026-09-20T15:06:01.939968Z

Period
93.85 min
Inclination
53.1567°
Eccentricity
0.0001300
Mean motion
15.34383745 rev/d
Perigee alt
461.9 km
Apogee alt
463.6 km
Semi-major
6,840.9 km
B*
3.2644e-4
RAAN
233.1549°
Arg perigee
102.8352°
Mean anomaly
257.2796°
Rev number
5,194

§ Raw data

STARLINK-353181 66146U 25240A   26263.62918912  .00010663  00000+0  32644-3 0  99902 66146  53.1567 233.1549 0001300 102.8352 257.2796 15.34383745 51944

JSON: /api/v1/satellites/66146 · /tle

For live sub-satellite position, see the globe view (requires WebGL).

§ Visibility from observer

Set your observer location to see the next 7 days of passes ≥ 10°. The values pass through the URL so the page stays shareable.

No JS? Fill the form by hand. The geolocation button needs JavaScript.